Regional Weather Roundup
Issued by NWS

Home | Current Version | Previous Version | Text Only | Print | Product List | Glossary On
Versions: 1 2 3 4 5 6 7 8 9 10 11 12 13 14 15 16 17 18 19 20 21 22 23 24 25 26 27 28 29 30 31 32 33 34 35 36 37 38 39 40 41 42 43 44 45 46 47 48 49 50
000
ASUS44 KFWD 020701
RWRTX
NORTH TEXAS HOURLY WEATHER ROUNDUP
NATIONAL WEATHER SERVICE FORT WORTH TX
200 AM CDT TUE JUN 02 2015

NOTE: "FAIR" INDICATES FEW OR NO CLOUDS BELOW 12,000 FEET WITH NO
SIGNIFICANT WEATHER AND/OR OBSTRUCTIONS TO VISIBILITY.

TXZ118-119-020800-
DALLAS/FORT WORTH METROPLEX

CITY           SKY/WX    TMP DP  RH WIND       PRES   REMARKS
DFW AIRPORT    PTCLDY    69  62  78 SE3       30.02F
DALLAS LOVE    CLEAR     72  63  73 SE6       30.02F
FTW MEACHAM    CLEAR     71  63  75 SE6       30.02F
DAL-EXECUTIVE  CLEAR     66  62  87 S3        30.03F
FTW-ALLIANCE   CLEAR     68  62  81 CALM      30.03S
FTW-NAS-JRB    CLEAR     72  63  73 S7        30.03F
ARLINGTON      CLEAR     68  62  81 CALM      30.03F
GRAND PRAIRIE  CLEAR     72  63  73 S3        30.04F
MESQUITE       CLEAR     67  64  90 CALM      30.03F
LANCASTER      CLEAR     64  61  91 CALM      30.04F
$$

TXZ091>094-102>105-117-120-121-131>134-020800-
NORTH CENTRAL TEXAS

CITY           SKY/WX    TMP DP  RH WIND       PRES   REMARKS
SHRMAN/DENISON CLEAR     70  63  79 SE6       30.05S
BRIDGEPORT     CLEAR     70  64  81 SE7       30.05S
DENTON         CLEAR     69  63  81 SE3       30.03S
MCKINNEY       CLEAR     68  64  87 CALM      30.03F
ROCKWALL       CLEAR     68  62  81 SE7       30.03F
TERRELL        CLEAR     67  63  87 CALM      30.04F
WAXAHACHIE     CLEAR     68  64  85 SE3       30.05S
$$

TXZ083>090-098>101-113>116-127>130-139>142-154-155-020800-
WESTERN NORTH TEXAS

CITY           SKY/WX    TMP DP  RH WIND       PRES   REMARKS
WICHITA FALLS  PTCLDY    67  61  81 SE8       30.01S
WF-KICKAPOO    PTCLDY    71  63  76 SE9       30.02F
ABILENE        MOCLDY    71  63  75 SE10      30.03F
ABILENE-DYESS  MOCLDY    69  61  74 S9        30.01F
MINERAL WELLS  CLEAR     69  64  84 SE8       30.02S
STEPHENVILLE   CLEAR     70  63  80 CALM      30.07F
COMANCHE       CLEAR     68  66  93 S5        30.04F
$$

TXZ143>147-156>162-174-175-020800-
CENTRAL TEXAS

CITY           SKY/WX    TMP DP  RH WIND       PRES   REMARKS
WACO           CLEAR     69  64  84 CALM      30.03S
WACO-MCGREGOR  CLEAR     70  63  78 SE6       30.04S
CORSICANA      CLEAR     69  64  84 SE3       30.04F
MEXIA          CLEAR     67  62  83 SE8       30.03F
HEARNE         CLEAR     69  65  85 CALM      30.03F
TEMPLE         CLEAR     70  63  78 E6        30.02F
KILLEEN        CLEAR     71  66  83 CALM      30.03S
KILLEEN-SKYLRK CLEAR     72  63  73 SE5       30.03F
FORT HOOD      CLEAR     71  66  84 SE6       30.02F
HAMILTON       CLEAR     69  68  96 S13       30.06R
LAMPASAS       CLEAR     71  68  90 CALM      30.04S
$$

TXZ095>097-106>112-122>126-135>138-148>153-164>167-020800-
EAST TEXAS

CITY           SKY/WX    TMP DP  RH WIND       PRES   REMARKS
PARIS          CLEAR     66  59  77 S5        30.05S
GILMER         CLEAR    N/A N/A N/A CALM      30.04F
TYLER          CLEAR     68  64  87 CALM      30.04S
LONGVIEW       CLEAR     68  65  90 CALM      30.03F
PALESTINE      CLEAR     64  63  95 CALM      30.04F
JACKSONVILLE   CLEAR     68  62  79 CALM      30.06S
NACOGDOCHES    CLEAR     63  61  94 CALM      30.02F
LUFKIN         CLEAR     69  64  84 CALM      30.02F
$$

SUPPLEMENTAL OBSERVATIONS (CENTRAL)

CITY           SKY/WX    TMP DP  RH WIND       PRES   REMARKS
$$

SUPPLEMENTAL OBSERVATIONS (WEST)

CITY           SKY/WX    TMP DP  RH WIND       PRES   REMARKS
$$

SUPPLEMENTAL OBSERVATIONS (EAST)

CITY           SKY/WX    TMP DP  RH WIND       PRES   REMARKS
$$

SUPPLEMENTAL OBSERVATIONS ARE A COLLECTION OF AUTOMATED INSTRUMENTS
THAT ARE MAINTAINED BY A VARIETY OF FEDERAL AND STATE AGENCIES.
CERTAIN ELEMENTS...SUCH AS HUMIDITY VALUES AND SUSTAINED WIND
SPEEDS...MAY BE APPROXIMATED.




USA.gov is the U.S. government's official web portal to all federal, state and local government web resources and services.